Ellensburg, WA

10:35 AM PST on January 17, 2017 (GMT -0800)
Bowers

Weather History for KELN - January, 2012

Change the Weather History Date:

Sunday, January 29, 2012

  Actual Average (KYKM) Record (KYKM)
Temperature  
Mean Temperature 29 °F -  
Max Temperature 37 °F 38 °F 59 °F (1974)
Min Temperature 21 °F 22 °F -13 °F (1957)
Degree Days  
Heating Degree Days 36    
Moisture  
Dew Point 25 °F    
Average Humidity 78    
Maximum Humidity 87    
Minimum Humidity 62    
Precipitation  
Precipitation 0.00 in - - ()
Sea Level Pressure  
Sea Level Pressure 29.90 in    
Wind  
Wind Speed 2 mph (East)    
Max Wind Speed 10 mph    
Max Gust Speed -    
Visibility 6 miles    
Events      
Averages and records for this station are not official NWS values.
T = Trace of Precipitation, MM = Missing Value Source: NWS Daily Summary

Daily Weather History Graph

Daily Weather History Graph

Search for Another Location

Airport or City:

Trip Planner

Search our weather history database for the weather conditions in past years. The results will help you decide how hot, cold, wet, or windy it might be!

Date:

Astronomy

Jan. 29, 2012 Rise Set
Actual Time 7:31 AM PST 4:59 PM PST
Civil Twilight 6:58 AM PST 5:32 PM PST
Nautical Twilight 6:21 AM PST 6:09 PM PST
Astronomical Twilight 5:45 AM PST 6:45 PM PST
Moon 9:54 AM PST (1/29) No Moon Set
Length of Visible Light 10h 34m
Length of Day
9h 28m
Waxing Crescent, 37% of the Moon is Illuminated
Jan 29
Waxing Crescent
Jan 30
First Quarter
Feb 7
Full
Feb 14
Last Quarter
Feb 21
New

Hourly Weather History & Observations

Time (PST) Temp. Windchill Dew Point Humidity Pressure Visibility Wind Dir Wind Speed Gust Speed Precip Events Conditions
12:53 AM 25.0 °F - 19.9 °F 81% 30.16 in 7.0 mi Calm Calm - N/A   Unknown
1:53 AM 24.1 °F 19.7 °F 19.0 °F 81% 30.14 in 7.0 mi West 3.5 mph - N/A   Clear
2:53 AM 21.0 °F 14.6 °F 16.0 °F 81% 30.12 in 8.0 mi NNE 4.6 mph - N/A   Clear
3:53 AM 24.1 °F 18.2 °F 19.9 °F 84% 30.08 in 5.0 mi Variable 4.6 mph - N/A   Partly Cloudy
4:53 AM 21.9 °F 15.7 °F 16.0 °F 78% 30.06 in 8.0 mi NNW 4.6 mph - N/A   Partly Cloudy
5:53 AM 21.0 °F 16.2 °F 15.1 °F 78% 30.05 in 7.0 mi South 3.5 mph - N/A   Clear
6:53 AM 21.9 °F - 17.1 °F 82% 30.03 in 7.0 mi Calm Calm - 0.00 in   Mostly Cloudy
7:53 AM 21.9 °F 17.2 °F 17.1 °F 82% 30.00 in 6.0 mi East 3.5 mph - 0.00 in   Haze
9:53 AM 28.0 °F 21.7 °F 21.0 °F 75% 29.99 in 8.0 mi SW 5.8 mph - N/A   Scattered Clouds
10:53 AM 30.0 °F - 21.0 °F 69% 29.97 in 7.0 mi Calm Calm - N/A   Overcast
11:53 AM 35.1 °F - 24.1 °F 64% 29.95 in 9.0 mi Calm Calm - N/A   Scattered Clouds
12:53 PM 37.0 °F - 26.1 °F 65% 29.94 in 9.0 mi Calm Calm - N/A   Overcast
1:53 PM 37.9 °F - 26.1 °F 62% 29.89 in 7.0 mi Calm Calm - N/A   Overcast
2:53 PM 37.9 °F - 27.0 °F 65% 29.89 in 6.0 mi Calm Calm - N/A   Haze
3:53 PM 35.1 °F 32.2 °F 28.0 °F 76% 29.86 in 4.0 mi WSW 3.5 mph - 0.00 in   Haze
4:53 PM 35.1 °F - 28.0 °F 76% 29.84 in 4.0 mi Calm Calm - N/A   Haze
5:53 PM 35.1 °F - 28.9 °F 78% 29.82 in 5.0 mi Calm Calm - N/A   Haze
6:53 PM 36.0 °F 33.3 °F 30.0 °F 79% 29.81 in 5.0 mi Variable 3.5 mph - N/A   Haze
7:06 PM 35.6 °F 32.8 °F 30.2 °F 81% 29.76 in 5.0 mi SSE 3.5 mph - N/A   Haze
7:53 PM 35.1 °F - 28.9 °F 78% 29.81 in 4.0 mi Calm Calm - N/A   Haze
8:53 PM 34.0 °F - 28.9 °F 82% 29.80 in 4.0 mi Calm Calm - N/A   Haze
9:53 PM 33.1 °F 30.0 °F 28.0 °F 82% 29.78 in 3.0 mi East 3.5 mph - N/A   Haze
10:00 PM 32.0 °F 27.5 °F 28.4 °F 87% 29.73 in 2.5 mi East 4.6 mph - N/A   Mostly Cloudy
10:08 PM 32.0 °F 26.4 °F 26.6 °F 80% 29.73 in 3.0 mi East 5.8 mph - N/A   Haze
10:27 PM 32.0 °F 26.4 °F 28.4 °F 87% 29.75 in 2.5 mi East 5.8 mph - N/A   Mostly Cloudy
10:36 PM 33.8 °F - 28.4 °F 81% 29.75 in 3.0 mi Calm Calm - N/A   Haze
10:53 PM 35.1 °F 32.2 °F 30.0 °F 82% 29.79 in 4.0 mi NNE 3.5 mph - N/A   Haze
11:53 PM 37.9 °F 30.9 °F 32.0 °F 79% 29.78 in 7.0 mi WNW 10.4 mph - N/A   Overcast